Regional Weather Roundup
Issued by NWS Newport/Morehead, NC

Current Version | Previous Version | Graphics & Text | Print | Product List | Glossary On
Versions: 1 2 3 4 5 6 7 8 9 10 11 12 13 14 15 16 17 18 19 20 21 22 23 24 25 26 27 28 29 30 31 32 33 34 35 36 37 38 39 40 41 42 43 44 45 46 47 48 49 50
000 ASUS42 KMHX 220912 RWRMHX WEATHER ROUNDUP FOR EASTERN NORTH CAROLINA NATIONAL WEATHER SERVICE NEWPORT/MOREHEAD CITY NC 500 AM EDT SAT APR 22 2017 NOTE: "FAIR" INDICATES FEW OR NO CLOUDS BELOW 12,000 FEET WITH NO SIGNIFICANT WEATHER AND/OR OBSTRUCTIONS TO VISIBILITY NCZ015>017-031-032-045>047-102-103-221000- NORTH COAST CITY SKY/WX TMP DP RH WIND PRES REMARKS EDENTON PTCLDY 71 63 77 SW9 29.88F ELIZABETH CITY CLOUDY 68 67 96 S5 29.86F KITTY HAWK SUNNY 70 61 72 SW7 29.86F MANTEO PTCLDY 69 61 74 W14 29.88F $$ NCZ045>047-081-094-103-104-221000- CENTRAL COAST CITY SKY/WX TMP DP RH WIND PRES REMARKS FRISCO CLEAR 69 65 86 W12 29.91R FOG $$ NCZ095-097-098-100-101-221000- SOUTHERN COAST CITY SKY/WX TMP DP RH WIND PRES REMARKS BEAUFORT CLEAR 70 68 93 SW14 29.91F CEDAR ISLAND NOT AVBL JACKSONVILLE CLEAR 67 65 93 SW8 29.91S PINEY ISLAND SUNNY N/A N/A N/A SW10 29.90F WILMINGTON CLEAR 68 66 93 SW9 29.92F $$ NCZ011>013-027>030-043-044-078>080-089-090>093-098-221000- COASTAL PLAIN CITY SKY/WX TMP DP RH WIND PRES REMARKS AHOSKIE FOG 64 64 99 CALM 29.88S VSB 1/2 CLINTON CLEAR 65 59 83 CALM 29.92R ELIZABETHTOWN CLEAR 66 62 85 SW6 29.91F GOLDSBORO CLEAR 67 62 83 S6 29.89S GREENVILLE PTCLDY 68 61 77 SW7 29.91F HAVELOCK NOT AVBL KENANSVILLE CLEAR 63 59 88 W3 29.91S KINSTON PTCLDY 65 57 75 CALM 29.91S NEW BERN CLEAR 67 63 87 W6 29.92S RICHLANDS CLEAR 64 62 93 SW7 29.92S ROCKY MOUNT CLEAR 67 65 93 S8 29.88S WASHINGTON CLEAR 66 57 74 SW5 29.90S WHITEVILLE CLEAR 66 62 89 SW6 29.92S $$ AMZ130-135-150-152-154-156-158-170-250-252-270-ANZ085-086-088-633-658-670-221000- MARINE OBSERVATIONS STATION/POSITION TIME TEMP WIND PRES WAVE SWELL AIR SEA DIR/SP/G HT/PER HT/PER (UTC) (F) (DEG/KT/KT) (MB) (FT/S) (FT/S) CHESAPEAKE LIGHT NOT AVBL 64 E VA BEACH 0850 61 57 230/ 14/ 16 1011.0 4/11 3/11 DUCK 0842 71 54 240/ 12/ 17 1010.7 2 E DUCK 0830 58 N/A 2/11 2/11 OREGON INLET 0842 71 74 230/ 13/ 15 1011.7 13E OREGON INLT 0848 63 N/A 4/11 3/11 HATTERAS CG 0842 68 71 230/ 12/ 17 1012.4 DIAMOND BUOY 0850 74 75 240/ 25/ 29 1012.0 5/ 5 2/10 CAPE LOOKOUT 0900 69 230/ 8/ 11 1012.8 BEAUFORT LAB 0842 69 67 240/ 6/ 12 1012.3 30 SE NEW RVR IN 0808 70 220/ 17/ 27 1013.5 30 SE NEW RVR IN 0843 71 N/A 4/ 5 27 SE WRIGHTSVLE 0808 71 70 220/ 12/ 16 1012.7 5 SE WRIGHTSVLE 0808 69 69 210/ 10/ 14 1013.3 225 S CAPE HAT 0850 72 74 210/ 12/ 14 1015.9 4/10 3/10 41 SE CHARLESTON 0850 75 76 210/ 16/ 19 1013.5 4/ 4 2/ 9 $$

USA.gov is the U.S. government's official web portal to all federal, state and local government web resources and services.